BOBCAT-1

Last updated on Mon Apr 11 2022 00:02:05 GMT+0000 (Coordinated Universal Time)

1 46922U 98067RS 22098.90122068 .11905367 12464-4 72310-3 0 9991 2 46922 51.6240 272.7697 0008754 281.6685 78.3359 16.41269594 81172

Satellite not in orbit